Regional Weather Roundup
Issued by NWS

Home | Current Version | Previous Version | Text Only | Print | Product List | Glossary On
Versions: 1 2 3 4 5 6 7 8 9 10 11 12 13 14 15 16 17 18 19 20 21 22 23 24 25 26 27 28 29 30 31 32 33 34 35 36 37 38 39 40 41 42 43 44 45 46 47 48 49 50
000
ASUS43 KLSX 230907
RWRMO

WEATHER SUMMARY FOR MISSOURI
NATIONAL WEATHER SERVICE SPRINGFIELD MO
400 AM CDT WED APR 23 2014

NOTE: "FAIR" INDICATES FEW OR NO CLOUDS BELOW 12,000 FEET WITH NO
       SIGNIFICANT WEATHER AND/OR OBSTRUCTIONS TO VISIBILITY.
       CURRENT SKY AND/OR WEATHER CONDITIONS ARE NOT AVAILABLE FOR
       CHILLICOTHE AND FARMINGTON.

MOZ001>031-035>038-043-044-053-054-231000-
...NORTHERN AND WESTERN MISSOURI...

CITY           SKY/WX    TMP DP  RH WIND       PRES   REMARKS
KANSAS CTY INT CLOUDY    55  34  45 SE12      29.99R
KANSAS C DTWN  MOCLDY    58  34  40 E8        29.99R
LEE`S SUMMIT   CLOUDY    55  35  47 E8        29.98F
ST JOSEPH      CLOUDY    55  34  45 E5        30.01R
CHILLICOTHE      N/A     52  35  52 E8        30.03S
KIRKSVILLE     CLEAR     45  32  60 E8        30.04S

$$
MOZ066>068-077>081-088>096-101>105-231000-
...SOUTHWEST MISSOURI...

CITY           SKY/WX    TMP DP  RH WIND       PRES   REMARKS
SPRINGFIELD    CLEAR     51  35  54 SE10      29.99S
JOPLIN         PTCLDY    49  38  65 E8        29.97F

$$
MOZ032>034-039>042-045>050-055>058-069>072-231000-
...CENTRAL MISSOURI...

CITY           SKY/WX    TMP DP  RH WIND       PRES   REMARKS
COLUMBIA       CLEAR     47  35  63 E9        30.01F
JEFFERSON CITY CLEAR     42  37  82 CALM      30.02S
ROLLA          CLEAR     47  33  58 E8        30.00F
SEDALIA        CLEAR     50  35  56 SE3       30.03R
WHITEMAN AFB   PTCLDY    48  32  53 E6        30.00S
OSAGE BEACH    CLEAR     45  34  65 SE5       30.03R

$$
MOZ051-052-059>065-231000-
...EAST CENTRAL MISSOURI...

CITY           SKY/WX    TMP DP  RH WIND       PRES   REMARKS
ST LOUIS INTL  PTCLDY    51  32  48 NE7       30.05R
SPIRIT OF STL  CLEAR     39  36  89 SW3       30.04R
ST CHARLES     CLEAR     50  33  52 NE8       30.05R

$$
MOZ072>076-082>087-097>100-106>115-231000-
...SOUTH CENTRAL AND SOUTHEAST MISSOURI...

CITY           SKY/WX    TMP DP  RH WIND       PRES   REMARKS
CAPE GIRARDEAU CLEAR     43  39  86 CALM      30.02R
FARMINGTON     CLEAR     43  37  81 CALM      30.05S
POPLAR BLUFF   CLEAR     47  41  80 NW3       30.01R
WEST PLAINS    CLEAR     49  32  52 E5        30.03S

$$



USA.gov is the U.S. government's official web portal to all federal, state and local government web resources and services.